Location: St Paul
(44.9440°N, 93.0930°W)
Time: 15:51:30
(UTC-05:00)

Tiangong 2 - Visible Passes

Search period start: 17 October 2017 00:00
Search period end: 27 October 2017 00:00
Orbit: 388 x 392 km, 42.8° (Epoch: 17 October)

Date Brightness Start Highest point End Pass type
(mag) Time Alt. Az. Time Alt. Az. Time Alt. Az.
17 Oct 1.6 05:50:25 45° SSW 05:50:25 45° SSW 05:53:29 10° ESE visible
18 Oct 4.3 04:55:26 12° ESE 04:55:26 12° ESE 04:55:47 10° ESE visible
18 Oct 2.6 06:27:47 18° WSW 06:29:10 24° SSW 06:31:49 10° SSE visible
19 Oct 3.1 05:32:50 22° SSE 05:32:50 22° SSE 05:34:23 10° SE visible
20 Oct 3.2 06:10:19 15° SSW 06:10:19 15° SSW 06:12:02 10° S visible
